GW5801 Weather Reports


time (UTC)temp
C
wind
direction
speed
KPH
gust
KPH
rain 1hr
cm
rain 24hr
cm
rain mn
cm
humidity
%
barometer
mb
20260502182509 22 28 3.2 6.4 0.00 0.00 0.00 46 1020.3
20260502182006 22 91 4.8 9.7 0.00 0.00 0.00 45 1020.2
20260502181504 22 23 1.6 6.4 0.00 0.00 0.00 44 1020.4
20260502181002 22 284 4.8 9.7 0.00 0.00 0.00 46 1020.4
20260502180459 22 359 1.6 9.7 0.00 0.00 0.00 48 1020.6
20260502170418 21 355 3.2 12.9 0.00 0.00 0.00 51 1020.5
20260502163900 21 56 1.6 9.7 0.00 0.00 0.00 58 1020.6
20260502163357 20 19 1.6 6.4 0.00 0.00 0.00 57 1020.7
20260502162855 20 28 1.6 11.3 0.00 0.00 0.00 58 1020.6
20260502162351 20 27 1.6 11.3 0.00 0.00 0.00 60 1020.7
20260502161849 20 89 1.6 9.7 0.00 0.00 0.00 60 1020.5
20260502161344 20 336 6.4 11.3 0.00 0.00 0.00 60 1020.5
20260502160843 20 353 1.6 4.8 0.00 0.00 0.00 63 1020.6
20260502160341 19 333 0.0 4.8 0.00 0.00 0.00 64 1020.2
20260502152316 18 67 3.2 4.8 0.00 0.00 0.00 72 1020.6
20260502151814 17 357 0.0 4.8 0.00 0.00 0.00 72 1020.4
20260502151310 17 349 1.6 6.4 0.00 0.00 0.00 72 1020.5
20260502150808 17 303 1.6 4.8 0.00 0.00 0.00 73 1020.7
20260502150304 17 1 3.2 4.8 0.00 0.00 0.00 72 1020.6
20260502130653 13 321 0.0 4.8 0.00 0.00 0.00 89 1019.4
20260502130150 13 348 0.0 1.6 0.00 0.00 0.00 89 1019.2
20260502123636 13 18 1.6 1.6 0.00 0.00 0.00 90 1018.8
20260502123133 12 351 1.6 3.2 0.00 0.00 0.00 90 1018.7
20260502122629 12 66 1.6 3.2 0.00 0.00 0.00 91 1018.7
20260502122126 12 345 1.6 3.2 0.00 0.00 0.00 91 1018.5
20260502121624 12 339 0.0 1.6 0.00 0.00 0.00 91 1018.6
20260502121121 12 53 1.6 9.7 0.00 0.00 0.00 91 1018.5
20260502120617 12 341 0.0 4.8 0.00 0.00 0.00 91 1018.4
20260502120114 12 17 1.6 1.6 0.00 0.00 0.00 91 1018.3
20260502115613 12 7 0.0 3.2 0.00 0.00 0.00 91 1018.4
20260502115108 12 41 1.6 1.6 0.00 0.00 0.00 91 1018.2
20260502114604 12 336 1.6 6.4 0.00 0.00 0.00 91 1018.2
20260502114101 12 342 0.0 3.2 0.00 0.00 0.00 91 1018.2
20260502113559 12 60 3.2 3.2 0.00 0.00 0.00 91 1018.0
20260502113057 12 47 1.6 3.2 0.00 0.00 0.00 91 1018.2
20260502112555 12 354 1.6 4.8 0.00 0.00 0.00 91 1018.1
20260502112052 12 319 0.0 1.6 0.00 0.00 0.00 91 1018.2
20260502111549 12 345 0.0 0.0 0.00 0.00 0.00 91 1018.0
20260502111047 12 51 1.6 4.8 0.00 0.00 0.00 91 1018.0
20260502110544 12 313 0.0 3.2 0.00 0.00 0.00 91 1018.0
20260502110042 12 329 0.0 1.6 0.00 0.00 0.00 91 1017.8
20260502105539 12 334 0.0 3.2 0.00 0.00 0.00 91 1017.6
20260502105037 12 346 0.0 1.6 0.00 0.00 0.00 90 1017.6
20260502104533 12 316 0.0 0.0 0.00 0.00 0.00 89 1017.6
20260502104031 12 340 0.0 0.0 0.00 0.00 0.00 87 1017.3
20260502103528 12 330 0.0 1.6 0.00 0.00 0.00 86 1017.4
20260502103026 12 335 0.0 1.6 0.00 0.00 0.00 85 1017.2
20260502102522 12 344 0.0 4.8 0.00 0.00 0.00 85 1017.2
20260502102020 12 337 0.0 3.2 0.00 0.00 0.00 85 1017.2
20260502101517 12 14 1.6 1.6 0.00 0.00 0.00 85 1017.1
20260502101016 12 14 1.6 4.8 0.00 0.00 0.00 85 1016.7
20260502100514 12 66 1.6 3.2 0.00 0.00 0.00 86 1016.8
20260502091448 12 58 0.0 4.8 0.00 0.00 0.00 87 1016.1
20260502090945 12 35 0.0 3.2 0.00 0.00 0.00 86 1016.2
20260502090442 12 30 0.0 4.8 0.00 0.00 0.00 86 1016.1
20260502071337 13 45 3.2 3.2 0.00 0.00 0.00 94 1016.0
20260502070835 13 1 0.0 3.2 0.00 0.00 0.00 94 1015.9
20260502070332 13 0 1.6 4.8 0.00 0.00 0.00 94 1015.9
20260502065831 13 69 1.6 3.2 0.00 0.00 0.00 95 1015.8
20260502065329 13 28 0.0 0.0 0.00 0.00 0.00 95 1015.7
20260502064826 13 46 0.0 4.8 0.00 0.00 0.00 95 1015.8
20260502064324 13 312 1.6 3.2 0.00 0.00 0.00 95 1015.8
20260502063821 13 329 1.6 4.8 0.00 0.00 0.00 95 1015.8
20260502063319 13 33 1.6 4.8 0.00 0.00 0.00 95 1015.4
20260502062816 13 54 1.6 3.2 0.00 0.00 0.00 95 1015.5
20260502062313 13 20 0.0 3.2 0.00 0.00 0.00 96 1015.6
20260502061812 13 35 1.6 9.7 0.00 0.00 0.00 96 1015.6
20260502061310 13 61 3.2 3.2 0.00 0.00 0.00 96 1015.5
20260502060805 13 304 1.6 3.2 0.00 0.00 0.00 96 1015.3
20260502060300 13 1 0.0 3.2 0.00 0.00 0.00 96 1015.7
20260502055759 13 49 1.6 4.8 0.00 0.00 0.00 96 1015.6
20260502055256 13 61 1.6 3.2 0.00 0.00 0.00 96 1015.6
20260502054755 13 332 3.2 6.4 0.00 0.00 0.00 96 1015.6
20260502054252 13 1 1.6 4.8 0.00 0.00 0.00 96 1015.7
20260502053750 13 352 0.0 3.2 0.00 0.00 0.00 96 1015.8
20260502053247 13 59 1.6 3.2 0.00 0.00 0.00 96 1015.9
20260502052745 13 354 3.2 3.2 0.00 0.00 0.00 96 1016.0
20260502052243 13 35 3.2 3.2 0.00 0.00 0.00 96 1015.8
20260502051740 13 255 3.2 6.4 0.00 0.00 0.00 96 1015.8
20260502051238 13 68 1.6 4.8 0.00 0.00 0.00 96 1015.8
20260502050734 13 50 1.6 6.4 0.00 0.00 0.00 97 1015.7
20260502050230 13 77 6.4 9.7 0.00 0.00 0.00 97 1015.8
20260502045728 13 12 1.6 9.7 0.00 9.91 9.91 97 1015.9
20260502045225 13 333 3.2 6.4 0.00 9.91 9.91 97 1016.0
20260502044722 13 29 1.6 4.8 0.00 9.91 9.91 97 1015.7
20260502044218 13 300 4.8 9.7 0.00 9.91 9.91 97 1015.9
20260502043715 13 40 3.2 4.8 0.00 9.91 9.91 97 1015.9
20260502043213 13 3 3.2 6.4 0.00 9.91 9.91 97 1015.7
20260502042712 13 8 1.6 4.8 0.00 9.91 9.91 97 1015.8
20260502042210 13 11 0.0 9.7 0.00 9.91 9.91 97 1015.7
20260502041707 13 27 1.6 9.7 0.00 9.91 9.91 97 1015.8
20260502041204 13 47 3.2 6.4 0.00 9.91 9.91 97 1015.7
20260502040701 13 100 8.0 12.9 0.00 9.91 9.91 97 1015.8
20260502040158 13 348 1.6 6.4 0.18 9.91 9.91 97 1015.4
20260502035654 13 44 1.6 4.8 0.30 9.91 9.91 97 1015.2
20260502035151 13 9 1.6 6.4 0.00 9.86 9.86 97 1015.1
20260502034649 13 9 4.8 6.4 0.00 9.86 9.86 97 1014.9
20260502034147 13 3 0.0 4.8 0.00 9.86 9.86 98 1015.3
20260502033645 13 290 1.6 4.8 0.00 9.86 9.86 97 1015.0
20260502033142 13 340 0.0 3.2 0.00 9.86 9.86 97 1014.7
20260502032638 13 90 3.2 6.4 0.00 9.86 9.86 98 1014.3
20260502032135 13 317 0.0 6.4 0.00 9.86 9.86 98 1014.5
20260502031633 13 317 0.0 4.8 0.00 9.86 9.86 97 1014.4
20260502031130 13 316 1.6 4.8 0.18 9.86 9.86 97 1013.9
20260502030629 13 355 1.6 4.8 0.18 9.86 9.86 97 1013.6
20260502030127 13 27 0.0 3.2 0.18 9.83 9.83 98 1013.8
20260502025623 13 55 1.6 3.2 0.18 9.83 9.83 98 1013.6
20260502025121 13 325 1.6 6.4 0.00 9.80 9.80 98 1014.2
20260502024619 14 347 3.2 3.2 0.13 9.80 9.80 98 1014.0
20260502024117 14 31 1.6 3.2 0.13 9.80 9.80 98 1014.1
20260502023615 14 353 1.6 9.7 0.18 9.78 9.78 98 1014.1
20260502023112 14 23 1.6 4.8 0.00 9.75 9.75 98 1013.9
20260502022608 14 52 1.6 4.8 0.00 9.75 9.75 98 1014.1
20260502022106 14 326 3.2 4.8 0.13 9.75 9.75 98 1014.0
20260502021603 15 352 3.2 4.8 0.13 9.75 9.75 98 1014.0
20260502021059 15 340 0.0 1.6 0.18 9.73 9.73 98 1014.0
20260502020557 15 312 0.0 1.6 0.18 9.73 9.73 98 1013.7
20260502020054 15 359 3.2 4.8 0.00 9.70 9.70 98 1013.8
20260502015552 15 291 1.6 4.8 0.13 9.70 9.70 98 1013.7
20260502015048 15 342 0.0 1.6 0.30 9.70 9.70 98 1013.4
20260502014545 15 359 1.6 9.7 0.18 9.68 9.68 98 1013.3
20260502014042 15 358 0.0 4.8 0.13 9.65 9.65 98 1013.2
20260502013537 15 341 0.0 11.3 0.30 9.65 9.65 98 1013.1
20260502013034 15 303 3.2 9.7 0.18 9.63 9.63 98 1012.8
20260502012531 15 327 6.4 6.4 0.30 9.60 9.60 98 1012.8
20260502012029 15 342 3.2 4.8 0.30 9.60 9.60 98 1012.7
20260502011526 15 71 3.2 4.8 0.00 9.55 9.55 98 1012.5
20260502011022 15 341 3.2 4.8 0.18 9.55 9.55 98 1012.2
20260502010520 15 324 0.0 1.6 0.18 9.55 9.55 98 1011.8
20260502010015 15 352 3.2 3.2 0.00 9.53 9.53 98 1011.6
20260502005514 15 9 0.0 4.8 0.13 9.53 9.53 98 1011.1
20260502005011 15 73 3.2 3.2 0.43 9.53 9.53 98 1010.9
20260502004507 15 51 3.2 3.2 0.61 9.50 9.50 98 1011.3
20260502004004 15 352 1.6 3.2 0.89 9.45 9.45 97 1011.5
20260502003501 15 310 3.2 4.8 1.37 9.40 9.40 97 1011.5
20260502002957 15 358 1.6 3.2 1.37 9.30 9.30 97 1011.9
20260502002455 15 317 1.6 4.8 0.71 9.14 9.14 98 1011.8
20260502001952 15 343 0.0 3.2 0.71 9.04 9.04 98 1011.6
20260502001449 15 48 0.0 4.8 1.55 9.02 9.02 98 1011.4
20260502000947 15 340 0.0 6.4 1.07 8.92 8.92 98 1011.1
20260502000446 15 15 1.6 6.4 0.30 8.76 8.76 97 1010.8
20260501235941 15 11 0.0 4.8 0.18 8.74 8.74 97 1011.1
20260501235437 15 8 1.6 3.2 0.00 8.71 8.71 97 1010.9
20260501234932 15 71 1.6 6.4 0.13 8.71 8.71 97 1010.9
20260501234429 15 26 1.6 11.3 0.13 8.71 8.71 97 1010.9
20260501233928 15 3 6.4 9.7 0.18 8.69 8.69 97 1011.1
20260501233425 15 53 3.2 6.4 0.18 8.69 8.69 98 1010.5
20260501232920 15 299 1.6 3.2 0.00 8.66 8.66 98 1010.4
20260501232418 15 49 1.6 4.8 0.13 8.66 8.66 98 1010.2
20260501231915 15 14 3.2 6.4 0.30 8.66 8.66 98 1010.5
20260501231413 15 341 3.2 4.8 0.18 8.64 8.64 98 1010.1
20260501230911 15 78 3.2 12.9 0.00 8.61 8.61 98 1010.2
20260501230410 16 71 1.6 9.7 0.13 8.61 8.61 98 1010.3
20260501225907 16 322 1.6 3.2 0.00 8.59 8.59 98 1010.8
20260501225404 16 337 1.6 4.8 0.00 8.59 8.59 98 1010.7
20260501224900 16 71 1.6 6.4 0.00 8.59 8.59 98 1010.6
20260501224358 16 71 1.6 3.2 0.00 8.59 8.59 98 1010.8
20260501223854 16 24 0.0 4.8 0.18 8.59 8.59 98 1010.4
20260501223350 16 25 1.6 4.8 0.36 8.59 8.59 98 1010.1
20260501222846 16 330 3.2 6.4 0.30 8.56 8.56 98 1010.4
20260501222344 16 11 1.6 9.7 0.13 8.53 8.53 98 1010.5
20260501221840 16 61 6.4 11.3 0.00 8.51 8.51 98 1011.0
20260501221337 16 57 1.6 3.2 0.18 8.51 8.51 98 1011.3
20260501220836 16 342 0.0 3.2 0.48 8.51 8.51 98 1011.5
20260501220333 16 47 1.6 4.8 0.30 8.48 8.48 98 1011.3
20260501215829 16 357 0.0 1.6 0.00 8.43 8.43 98 1011.6
20260501215325 16 22 1.6 1.6 0.13 8.43 8.43 98 1011.3
20260501214821 16 352 0.0 3.2 0.30 8.43 8.43 98 1011.1
20260501214316 16 25 1.6 3.2 0.61 8.41 8.41 98 1010.8
20260501213813 16 314 3.2 4.8 0.66 8.36 8.36 98 1010.1
20260501213309 16 6 3.2 3.2 0.66 8.31 8.31 98 1009.7
20260501212805 16 59 1.6 6.4 1.19 8.26 8.26 98 1009.9
20260501212301 16 72 0.0 3.2 1.19 8.23 8.23 98 1010.1
20260501211759 16 89 3.2 4.8 0.79 8.08 8.08 98 1009.9
20260501211256 16 6 4.8 6.4 1.07 8.00 8.00 98 1010.6
20260501210753 16 300 3.2 6.4 1.32 7.92 7.92 98 1010.2
20260501210249 16 49 1.6 9.7 1.07 7.80 7.80 98 1010.4
20260501205746 16 55 3.2 4.8 0.79 7.70 7.70 98 1010.6
20260501205243 16 24 3.2 4.8 0.61 7.62 7.62 98 1010.6
20260501204740 16 5 1.6 3.2 0.30 7.54 7.54 98 1010.4
20260501204237 16 39 1.6 3.2 0.18 7.52 7.52 98 1009.8
20260501203733 16 20 1.6 4.8 0.13 7.49 7.49 98 1009.7
20260501203230 16 77 4.8 9.7 0.71 7.49 7.49 98 1009.5
20260501202727 17 78 3.2 4.8 2.29 7.47 7.47 98 1009.3
20260501202224 17 70 3.2 11.3 3.53 7.37 7.37 98 1009.1
20260501201721 17 79 3.2 6.4 3.17 7.06 7.06 98 1008.7
20260501201217 17 20 1.6 1.6 1.80 6.78 6.78 98 1009.7
20260501200714 17 346 1.6 3.2 0.79 6.53 6.53 98 1009.3
20260501200212 17 27 1.6 3.2 0.89 6.45 6.45 98 1009.8
20260501195709 17 53 1.6 3.2 1.55 6.38 6.38 98 1009.6
20260501195205 17 51 0.0 1.6 3.78 6.27 6.27 98 1009.4
20260501194700 16 86 6.4 6.4 5.03 6.05 6.05 97 1009.0
20260501194155 16 74 3.2 4.8 2.87 5.59 5.59 97 1008.8
20260501193653 16 83 0.0 6.4 0.30 5.16 5.16 97 1009.6
20260501193152 16 47 1.6 6.4 0.18 5.11 5.11 97 1008.9
20260501192649 16 54 1.6 3.2 0.36 5.11 5.11 97 1008.5
20260501192146 17 52 3.2 9.7 0.61 5.08 5.08 97 1008.2
20260501191643 17 79 4.8 12.9 0.71 5.05 5.05 97 1008.9
20260501191141 17 64 3.2 9.7 0.13 4.95 4.95 97 1010.4
20260501190637 17 285 0.0 4.8 0.18 4.93 4.93 98 1011.4
20260501190132 17 254 3.2 3.2 0.30 4.93 4.93 98 1010.7
20260501185628 17 119 6.4 6.4 0.30 4.90 4.90 97 1009.2
20260501185124 17 57 4.8 4.8 0.30 4.88 4.88 98 1009.1
20260501184620 17 69 3.2 3.2 0.13 4.85 4.85 98 1010.3
20260501184115 17 255 3.2 6.4 0.00 4.83 4.83 98 1010.6
20260501183612 17 316 0.0 4.8 0.00 4.83 4.83 98 1009.8
20260501183109 17 57 1.6 6.4 0.00 4.83 4.83 98 1008.5